[[{"header":{"parameterUnit":"m.s-1","parameterCategory":1,"la1":30.2991,"la2":30.254,"lo1":-89.0895,"lo2":-89.0444,"dy":0.0017,"dx":0.0017,"nx":28,"ny":28,"refTime":"2025-03-13T03:00:00:Z","depth":0,"parameterNumber":2,"parameterNumberName":"U-component_of_WINDS"},"data":[0,0,0,0,0,0,0,0,0,0,0,0,0,0,0,0,0,0,0,0,0,0,0,0,0,0,0,0,0,0,0,0,0,0,0,0,0,0,0,0,0,0,0,0,0,0,0,0,0,0,0,0,0,0,0,0,0,0,-1.0725,-1.0725,0,-1.0751,-1.0751,-1.0752,-1.0751,-1.0751,-1.0751,-1.075,-1.0776,-1.0777,-1.0778,0,0,0,0,0,0,0,0,0,0,0,0,0,-1.0673,-1.0674,-1.0725,-1.0725,-1.0725,-1.0751,-1.0751,-1.0752,-1.0751,-1.0751,-1.0751,-1.075,-1.0776,-1.0777,-1.0778,0,0,0,0,0,0,0,0,0,0,0,0,0,-1.0697,-1.0675,-1.0725,-1.0728,-1.0729,-1.0751,-1.0751,-1.0752,-1.0751,-1.0751,-1.075,-1.075,-1.0775,-1.0777,-1.0778,-1.0798,0,0,-1.0783,-1.0784,0,0,0,0,0,0,0,0,-1.0696,-1.0699,-1.0727,-1.0728,-1.0729,-1.0747,-1.0743,-1.0767,-1.0752,-1.0743,-1.075,-1.075,-1.0767,-1.0769,-1.0775,-1.0799,-1.08,-1.0783,-1.0784,-1.0785,-1.0785,0,0,0,0,0,0,0,-1.0694,-1.0698,-1.0735,-1.0728,-1.0729,-1.0728,-1.0731,-1.0747,-1.0757,-1.0744,-1.0744,-1.0747,-1.0767,-1.0774,-1.0776,-1.0801,-1.0783,-1.0784,-1.0785,-1.0786,-1.0842,-1.0843,0,0,0,0,0,0,-1.0692,-1.0697,-1.0734,-1.0736,-1.0711,-1.073,-1.0733,-1.0742,-1.0757,-1.0759,-1.0747,-1.0747,-1.0771,-1.0774,-1.0777,-1.08,-1.0785,-1.0786,-1.0787,-1.0842,-1.0842,-1.0843,0,0,0,0,0,0,-1.0691,-1.0695,-1.0733,-1.0716,-1.0721,-1.0731,-1.0741,-1.0743,-1.0749,-1.076,-1.0762,-1.0752,-1.0771,-1.0774,-1.0793,-1.0801,-1.0787,-1.0788,-1.0841,-1.0842,-1.0843,-1.0848,0,0,0,0,0,0,-1.0689,-1.0695,-1.0703,-1.0716,-1.0722,-1.0749,-1.0742,-1.0744,-1.0752,-1.0751,-1.0765,-1.0767,-1.0771,-1.0791,-1.0794,-1.0803,-1.0789,-1.084,-1.0841,-1.0843,-1.0848,-1.0849,-1.0851,0,0,0,0,0,-1.0688,-1.0703,-1.0703,-1.0707,-1.0732,-1.075,-1.0753,-1.0757,-1.0753,-1.076,-1.0767,-1.0766,-1.08,-1.0792,-1.0797,-1.0806,-1.084,-1.0841,-1.0842,-1.0847,-1.0849,-1.0851,0,0,0,0,0,0,-1.0689,-1.0705,-1.0705,-1.0725,-1.0736,-1.0749,-1.0759,-1.076,-1.0772,-1.0771,-1.0776,-1.0779,-1.0797,-1.0804,-1.0795,-1.0826,-1.0819,-1.0821,-1.0821,-1.0823,-1.0825,-1.0823,-1.0791,0,0,0,0,0,-1.0692,-1.0706,-1.0718,-1.0735,-1.074,-1.0749,-1.0757,-1.076,-1.0771,-1.0775,-1.0784,-1.0795,-1.0808,-1.0816,-1.0829,-1.0849,-1.0852,-1.0857,-1.0859,-1.0861,-1.0862,-1.0873,-1.0876,-1.0847,-1.0847,-1.0847,0,0,-1.0698,-1.0708,-1.0716,-1.0736,-1.0744,-1.0758,-1.0753,-1.0767,-1.0777,-1.0778,-1.0795,-1.0802,-1.0814,-1.0834,-1.0843,-1.0839,-1.0871,-1.0862,-1.0863,-1.0864,-1.0875,-1.0878,-1.088,-1.0848,-1.0848,-1.0848,0,0,-1.0715,-1.0724,-1.0739,-1.0748,-1.0762,-1.0768,-1.0771,-1.0785,-1.0789,-1.0807,-1.0808,-1.082,-1.0842,-1.0851,-1.0858,-1.088,-1.0879,-1.0884,-1.0892,-1.0903,-1.0905,-1.0907,-1.0915,-1.0917,-1.0885,-1.0885,-1.0885,0,-1.072,-1.0741,-1.0747,-1.0761,-1.077,-1.0772,-1.0787,-1.0795,-1.0812,-1.0817,-1.0814,-1.0842,-1.0851,-1.0872,-1.0877,-1.0883,-1.0887,-1.0882,-1.0905,-1.0907,-1.0909,-1.0916,-1.0918,-1.0886,-1.0886,-1.0886,-1.0886,0,-1.0747,-1.0761,-1.0772,-1.0788,-1.0798,-1.0813,-1.082,-1.083,-1.0832,-1.0838,-1.0856,-1.0867,-1.0881,-1.0887,-1.0889,-1.0908,-1.0906,-1.0904,-1.0897,-1.0912,-1.0918,-1.0921,-1.0886,-1.0886,-1.0886,-1.0886,0,0,-1.0765,-1.0785,-1.0789,-1.0797,-1.0812,-1.0823,-1.0838,-1.0853,-1.086,-1.0872,-1.0884,-1.0904,-1.0901,-1.091,-1.0913,-1.0923,-1.0939,-1.0919,-1.0919,-1.0922,-1.096,-1.0962,-1.0965,-1.0939,-1.0939,-1.094,-1.0959,0,-1.0784,-1.081,-1.0816,-1.0839,-1.0852,-1.0854,-1.0867,-1.0878,-1.0884,-1.0896,-1.0903,-1.0916,-1.0913,-1.0918,-1.0927,-1.0935,-1.0946,-1.0933,-1.0949,-1.095,-1.0946,-1.0968,-1.0969,-1.0987,-1.0962,-1.0962,-1.0963,0,-1.0809,-1.0822,-1.0846,-1.086,-1.0865,-1.0877,-1.0891,-1.0903,-1.0915,-1.0919,-1.0928,-1.0931,-1.0946,-1.0939,-1.096,-1.0951,-1.0958,-1.0963,-1.0964,-1.0965,-1.0957,-1.0969,-1.0993,-1.0996,-1.0967,-1.0966,-1.0966,0,-1.0819,-1.0842,-1.086,-1.0866,-1.0883,-1.0891,-1.0898,-1.091,-1.0919,-1.0931,-1.0937,-1.0951,-1.0958,-1.0969,-1.0975,-1.0969,-1.0995,-1.0989,-1.0998,-1.0998,-1.1003,-1.1002,-1.1028,-1.1009,-1.1009,-1.1008,-1.1008,0,-1.0839,-1.0854,-1.0865,-1.0875,-1.0892,-1.0899,-1.0915,-1.0922,-1.0932,-1.0944,-1.0947,-1.0958,-1.0966,-1.0978,-1.0983,-1.0999,-1.1003,-1.1006,-1.1007,-1.1005,-1.1005,-1.1009,-1.1008,-1.1009,-1.1009,-1.1009,-1.1009,0,-1.0853,-1.0861,-1.088,-1.0895,-1.0899,-1.091,-1.0922,-1.0933,-1.0939,-1.0954,-1.0958,-1.0968,-1.0983,-1.099,-1.1008,-1.1011,-1.103,-1.103,-1.1026,-1.1026,-1.1035,-1.1034,-1.1063,-1.1067,-1.1046,-1.1046,-1.1047,0,-1.0865,-1.0876,-1.0892,-1.09,-1.0908,-1.0921,-1.093,-1.0937,-1.0946,-1.0961,-1.097,-1.0985,-1.0997,-1.102,-1.1028,-1.1042,-1.1043,-1.1052,-1.1044,-1.1043,-1.1042,-1.1041,-1.1042,-1.1053,-1.1053,-1.1053,-1.1054,0,-1.0885,-1.0888,-1.0901,-1.0916,-1.0926,-1.0938,-1.0949,-1.0956,-1.0965,-1.0975,-1.099,-1.1,-1.1018,-1.1033,-1.1047,-1.1054,-1.1055,-1.1056,-1.1059,-1.1057,-1.1054,-1.1055,-1.1029,-1.1055,-1.1055,-1.1055,-1.1055,-1.1055,-1.0897,-1.0908,-1.092,-1.0935,-1.0944,-1.0955,-1.0965,-1.0974,-1.0986,-1.1002,-1.1006,-1.1021,-1.1033,-1.1053,-1.1061,-1.1073,-1.1071,-1.1075,-1.1076,-1.1077,-1.1077,-1.1052,-1.1076,-1.1076,-1.1076,-1.1076,-1.1076,0,-1.0917,-1.0925,-1.0939,-1.0955,-1.0966,-1.0967,-1.098,-1.0989,-1.1003,-1.1014,-1.1026,-1.1044,-1.1058,-1.1068,-1.1082,-1.109,-1.1091,-1.1093,-1.1093,-1.1094,-1.1078,-1.1074,-1.1093,-1.1093,-1.1093,-1.1093,-1.1093,-1.1092,-1.0928,-1.0946,-1.0951,-1.0973,-1.0981,-1.0997,-1.1004,-1.1014,-1.1023,-1.1042,-1.1054,-1.1061,-1.1072,-1.1087,-1.11,-1.1102,-1.1107,-1.111,-1.1112,-1.1097,-1.1095,-1.1094,-1.109,-1.1111,-1.1111,-1.1127,-1.1127,-1.1127]},{"header":{"parameterUnit":"m.s-1","parameterCategory":1,"la1":30.2991,"la2":30.254,"lo1":-89.0895,"lo2":-89.0444,"dy":0.0017,"dx":0.0017,"nx":28,"ny":28,"refTime":"2025-03-13T03:00:00:Z","depth":0,"parameterNumber":3,"parameterNumberName":"V-component_of_WINDS"},"data":[0,0,0,0,0,0,0,0,0,0,0,0,0,0,0,0,0,0,0,0,0,0,0,0,0,0,0,0,0,0,0,0,0,0,0,0,0,0,0,0,0,0,0,0,0,0,0,0,0,0,0,0,0,0,0,0,0,0,3.5142,3.5142,0,3.5151,3.5152,3.5152,3.5129,3.5129,3.5128,3.5127,3.5136,3.5137,3.5138,0,0,0,0,0,0,0,0,0,0,0,0,0,3.5103,3.5104,3.5142,3.5142,3.5142,3.5151,3.5152,3.5152,3.513,3.5129,3.5128,3.5127,3.5135,3.5137,3.5138,0,0,0,0,0,0,0,0,0,0,0,0,0,3.5117,3.5104,3.5142,3.5132,3.5131,3.5151,3.5152,3.5152,3.513,3.5129,3.5128,3.5127,3.5135,3.5136,3.5138,3.5167,0,0,3.5142,3.5142,0,0,0,0,0,0,0,0,3.5116,3.5118,3.5133,3.5133,3.5132,3.5138,3.5141,3.5157,3.513,3.513,3.5127,3.5126,3.5137,3.5138,3.5142,3.5167,3.5168,3.5142,3.5143,3.5143,3.5144,0,0,0,0,0,0,0,3.5115,3.5118,3.5145,3.5134,3.5133,3.5127,3.5128,3.5144,3.514,3.513,3.5129,3.513,3.5137,3.5141,3.5143,3.5168,3.5142,3.5143,3.5144,3.5144,3.5218,3.5219,0,0,0,0,0,0,3.5115,3.5117,3.5145,3.5146,3.5121,3.5128,3.5129,3.5137,3.5139,3.5139,3.5131,3.5129,3.514,3.5141,3.5143,3.5177,3.5143,3.5144,3.5145,3.5216,3.5218,3.5219,0,0,0,0,0,0,3.5115,3.5118,3.5145,3.5131,3.5134,3.513,3.5139,3.5138,3.5142,3.514,3.5139,3.5137,3.5139,3.5141,3.5161,3.5177,3.5145,3.5146,3.5215,3.5217,3.5219,3.5247,0,0,0,0,0,0,3.5114,3.5118,3.5129,3.5131,3.5135,3.5164,3.514,3.5139,3.5145,3.5143,3.5145,3.5144,3.5138,3.5159,3.5163,3.5179,3.5147,3.5214,3.5216,3.5218,3.5244,3.5249,3.5253,0,0,0,0,0,3.5112,3.5137,3.513,3.5134,3.5149,3.5165,3.5166,3.5159,3.5146,3.5158,3.5156,3.5144,3.5175,3.5162,3.5165,3.5182,3.5213,3.5215,3.5218,3.5242,3.5248,3.5253,0,0,0,0,0,0,3.5136,3.5137,3.513,3.5155,3.516,3.5161,3.5175,3.5166,3.5174,3.5171,3.5162,3.5162,3.5185,3.5185,3.517,3.521,3.5192,3.5195,3.5209,3.5215,3.5219,3.5218,3.5148,0,0,0,0,0,3.5144,3.5158,3.5157,3.518,3.5183,3.5179,3.5185,3.5179,3.5184,3.5185,3.5185,3.519,3.52,3.5208,3.5217,3.5244,3.5244,3.5257,3.5262,3.5266,3.5269,3.5283,3.5289,3.5228,3.5228,3.5228,0,0,3.5161,3.5163,3.5172,3.5185,3.5188,3.5201,3.518,3.5195,3.5205,3.5187,3.5207,3.5207,3.5211,3.5235,3.5246,3.5236,3.5286,3.5269,3.5272,3.5273,3.5286,3.5292,3.5297,3.5229,3.5229,3.5229,0,0,3.5199,3.5202,3.5222,3.5226,3.5231,3.5228,3.5233,3.5235,3.5234,3.5254,3.5241,3.5252,3.5271,3.5274,3.5279,3.5319,3.5308,3.5322,3.5346,3.536,3.5365,3.5369,3.5383,3.5388,3.5325,3.5325,3.5325,0,3.522,3.524,3.5233,3.5249,3.5255,3.524,3.5259,3.5263,3.5271,3.5275,3.5265,3.5288,3.529,3.5314,3.5324,3.5328,3.5333,3.5322,3.5365,3.5369,3.5373,3.5386,3.5391,3.5327,3.5327,3.5326,3.5326,0,3.5265,3.5279,3.5294,3.5303,3.531,3.5328,3.5323,3.5331,3.5325,3.5323,3.5343,3.5345,3.5355,3.536,3.5354,3.5384,3.5378,3.5366,3.5347,3.538,3.5393,3.5398,3.5329,3.5329,3.5328,3.5328,0,0,3.5318,3.5323,3.5328,3.5332,3.5337,3.5348,3.5365,3.5375,3.5382,3.5388,3.5402,3.5418,3.5408,3.5413,3.5406,3.5419,3.5451,3.5406,3.5405,3.5414,3.5484,3.5493,3.5499,3.5444,3.5445,3.5445,3.5484,0,3.5356,3.5385,3.5379,3.5408,3.5421,3.5408,3.5422,3.5427,3.5426,3.5436,3.5434,3.5446,3.5431,3.5434,3.5446,3.5444,3.5464,3.5441,3.5456,3.5457,3.5455,3.5505,3.5515,3.5551,3.5488,3.5489,3.549,0,3.5403,3.5412,3.5443,3.5446,3.5451,3.5464,3.5473,3.5484,3.5488,3.5486,3.5492,3.5484,3.55,3.5481,3.5504,3.5488,3.5494,3.5494,3.5495,3.5496,3.5475,3.5508,3.5562,3.5567,3.5497,3.5497,3.5496,0,3.5439,3.5458,3.5479,3.5483,3.5487,3.5496,3.5498,3.5502,3.5509,3.5516,3.5521,3.553,3.5535,3.5542,3.5537,3.5523,3.556,3.5541,3.5559,3.5559,3.5567,3.5566,3.5623,3.5571,3.5571,3.557,3.557,0,3.5482,3.5501,3.5495,3.5508,3.5529,3.5521,3.5542,3.5543,3.5546,3.5558,3.5547,3.5559,3.555,3.5561,3.5557,3.5576,3.5578,3.5577,3.5576,3.5578,3.5578,3.5581,3.5579,3.5572,3.5572,3.5571,3.5571,0,3.5525,3.5522,3.5543,3.5546,3.5547,3.5562,3.5564,3.5576,3.5574,3.5589,3.5593,3.5589,3.5602,3.5597,3.561,3.5607,3.5631,3.5626,3.563,3.5629,3.5647,3.5645,3.5707,3.5715,3.5658,3.5659,3.5659,0,3.5552,3.5567,3.5571,3.5579,3.5582,3.5594,3.5601,3.5594,3.5602,3.5609,3.5619,3.5631,3.564,3.566,3.5658,3.5668,3.5663,3.5685,3.5665,3.5667,3.5664,3.5663,3.5664,3.5688,3.5689,3.569,3.569,0,3.5601,3.5599,3.561,3.562,3.5629,3.5636,3.5643,3.565,3.5643,3.5652,3.5665,3.5672,3.5686,3.5697,3.5706,3.5707,3.5698,3.5696,3.5701,3.5704,3.5705,3.5704,3.564,3.5695,3.5694,3.5694,3.5694,3.5694,3.5637,3.5649,3.5654,3.5667,3.5671,3.5678,3.5689,3.5689,3.5699,3.571,3.5705,3.572,3.5724,3.5735,3.5738,3.5749,3.5741,3.5748,3.5749,3.5751,3.5754,3.5703,3.5751,3.5751,3.5751,3.575,3.575,0,3.5685,3.5688,3.5699,3.5709,3.5719,3.571,3.5717,3.5725,3.5738,3.5744,3.5753,3.5767,3.5778,3.5778,3.5788,3.5797,3.5793,3.58,3.5799,3.58,3.5761,3.5755,3.5803,3.5803,3.5803,3.5803,3.5803,3.5803,3.5711,3.5732,3.573,3.5753,3.5755,3.577,3.5775,3.5781,3.5785,3.5802,3.5811,3.5811,3.5814,3.5824,3.5834,3.5834,3.5838,3.5846,3.5844,3.5808,3.5802,3.5797,3.5793,3.5847,3.5848,3.5883,3.5883,3.5883]}]]